TimeEDT,TemperatureF,Dew PointF,Humidity,Sea Level PressureIn,VisibilityMPH,Wind Direction,Wind SpeedMPH,Gust SpeedMPH,PrecipitationIn,Events,Conditions,WindDirDegrees,DateUTC
12:54 AM,51.1,41.0,68,29.47,10.0,West,16.1,23.0,N/A,,Mostly Cloudy,260,2011-10-20 04:54:00
1:54 AM,48.9,37.9,66,29.50,10.0,West,13.8,-,N/A,,Scattered Clouds,270,2011-10-20 05:54:00
2:54 AM,48.0,39.9,74,29.52,10.0,WSW,11.5,18.4,N/A,,Mostly Cloudy,250,2011-10-20 06:54:00
3:54 AM,46.0,39.9,79,29.54,10.0,SW,11.5,-,N/A,,Partly Cloudy,220,2011-10-20 07:54:00
4:54 AM,45.0,39.0,80,29.55,10.0,SW,10.4,-,N/A,,Clear,230,2011-10-20 08:54:00
5:54 AM,44.1,39.0,82,29.59,10.0,SW,10.4,-,N/A,,Clear,220,2011-10-20 09:54:00
6:54 AM,43.0,39.0,86,29.61,10.0,SW,10.4,-,N/A,,Clear,230,2011-10-20 10:54:00
7:54 AM,43.0,39.0,86,29.64,10.0,SW,9.2,-,N/A,,Partly Cloudy,220,2011-10-20 11:54:00
8:54 AM,46.0,39.9,79,29.68,10.0,SW,12.7,-,N/A,,Scattered Clouds,220,2011-10-20 12:54:00
9:54 AM,48.9,39.9,71,29.70,10.0,SW,18.4,23.0,N/A,,Scattered Clouds,220,2011-10-20 13:54:00
10:54 AM,52.0,39.9,63,29.71,10.0,SW,13.8,21.9,N/A,,Clear,220,2011-10-20 14:54:00
11:54 AM,55.0,39.0,55,29.72,10.0,SW,15.0,23.0,N/A,,Scattered Clouds,220,2011-10-20 15:54:00
12:54 PM,54.0,37.0,53,29.73,10.0,WSW,16.1,21.9,N/A,,Mostly Cloudy,240,2011-10-20 16:54:00
1:54 PM,55.0,39.0,55,29.73,10.0,WSW,12.7,18.4,N/A,,Mostly Cloudy,240,2011-10-20 17:54:00
2:54 PM,57.0,37.0,47,29.72,10.0,West,13.8,-,N/A,,Mostly Cloudy,260,2011-10-20 18:54:00
3:54 PM,57.0,37.0,47,29.74,10.0,WSW,17.3,23.0,N/A,,Mostly Cloudy,250,2011-10-20 19:54:00
4:54 PM,57.0,37.9,49,29.76,10.0,WSW,13.8,18.4,N/A,,Mostly Cloudy,240,2011-10-20 20:54:00
5:54 PM,57.0,37.9,49,29.79,10.0,WSW,15.0,-,N/A,,Mostly Cloudy,240,2011-10-20 21:54:00
6:54 PM,53.1,39.0,59,29.84,10.0,West,11.5,-,N/A,,Scattered Clouds,270,2011-10-20 22:54:00
7:54 PM,51.1,37.0,59,29.87,10.0,WNW,4.6,-,N/A,,Mostly Cloudy,290,2011-10-20 23:54:00
8:54 PM,50.0,37.9,63,29.89,10.0,West,4.6,-,N/A,,Scattered Clouds,280,2011-10-21 00:54:00
9:54 PM,46.0,37.9,73,29.92,10.0,WSW,4.6,-,N/A,,Clear,240,2011-10-21 01:54:00
10:54 PM,45.0,37.9,76,29.93,10.0,West,5.8,-,N/A,,Clear,280,2011-10-21 02:54:00
11:54 PM,45.0,37.9,76,29.93,10.0,West,5.8,-,N/A,,Clear,260,2011-10-21 03:54:00